Terminal Aerodrome Forecast
Issued by NWS Greer, SC

Home | Current Version | Previous Version | Text Only | Print | Product List | Glossary On
Versions: 1 2 3 4 5 6 7 8 9 10 11 12 13 14 15 16 17 18 19 20 21 22 23 24 25 26 27 28 29 30 31 32 33 34 35 36 37 38 39 40 41 42 43 44 45 46 47 48 49 50
000
FTUS42 KGSP 180900 AAA
TAFCLT
TAF AMD
KCLT 180914Z 1809/1906 02003KT 3SM BR BKN008 OVC014
      TEMPO 1810/1812 2SM BR FEW004 SCT008 BKN014
     FM181400 05004KT P6SM BKN022
     FM181600 09003KT P6SM BKN040=

USA.gov is the U.S. government's official web portal to all federal, state and local government web resources and services.